Regional Weather Roundup
Issued by NWS

Home | Current Version | Previous Version | Graphics & Text | Print | Product List | Glossary Off
Versions: 1 2 3 4 5 6 7 8 9 10 11 12 13 14 15 16 17 18 19 20 21 22 23 24 25 26 27 28 29 30 31 32 33 34 35 36 37 38 39 40 41 42 43 44 45 46 47 48 49 50

005
ASUS43 KDMX 261108
RWRIA

WEATHER ROUNDUP FOR IOWA
NATIONAL WEATHER SERVICE DES MOINES IA
600 AM CDT MON SEP 26 2016

NOTE: "FAIR" INDICATES FEW OR NO CLOUDS BELOW 12,000 FEET WITH NO
SIGNIFICANT WEATHER AND/OR OBSTRUCTIONS TO VISIBILITY.

* - THESE STATIONS ARE NOT NWS STATIONS...THUS NOT UNDER NWS
QUALITY CONTROL.  THEY ALSO DO NOT REPORT WEATHER SUCH
AS PRECIPITATION OR FOG.

IAZ001>003-012>014-020>022-031>034-043>046-261200-
   NORTHWEST IOWA

CITY           SKY/WX    TMP DP  RH WIND       PRES   REMARKS
CARROLL *      CLEAR     46  41  81 W9        30.16S
CHEROKEE *     CLEAR     45  38  77 W6        30.16S
DENISON *      CLEAR     45  39  81 SW5       30.17S
LE MARS *      PTCLDY    45  37  76 W5        30.19S
ORANGE CITY *  CLEAR     43  39  87 W6        30.17S
SHELDON *      CLEAR     43  37  81 W8        30.14R
SIOUX CITY     PTCLDY    47  37  68 NW5       30.20R
SPENCER        CLEAR     45  38  76 W13       30.13R
STORM LAKE *   CLEAR     43  37  81 W12       30.16S
$$

IAZ055>058-069>071-079>083-090>094-261200-
   SOUTHWEST IOWA

CITY           SKY/WX    TMP DP  RH WIND       PRES   REMARKS
ATLANTIC *     CLEAR     46  41  81 CALM      30.19S
AUDUBON *      CLEAR     50  39  66 CALM      30.19S
CLARINDA *       N/A     45  43  93 MISG      30.24R
COUNCIL BLFS * CLEAR     46  41  81 W8        30.22R
CRESTON *      CLEAR     45  41  87 W9        30.21R
HARLAN  *      CLEAR     45  41  87 CALM      30.23S
LAMONI         CLEAR     47  42  83 W7        30.19S
RED OAK *      PTCLDY    46  41  81 W7        30.22R
SHENANDOAH *   CLEAR     46  43  87 SW8       30.24R
$$

IAZ047>049-059>061-072>074-084-261200-
   CENTRAL IOWA

CITY           SKY/WX    TMP DP  RH WIND       PRES   REMARKS
AMES           CLEAR     48  43  82 W10       30.12S
ANKENY *         N/A    N/A N/A N/A MISG        N/A
BOONE *        CLEAR     48  41  76 W10       30.12S
CHARITON *       N/A     46  43  87 W9        30.16S
DES MOINES     CLEAR     51  41  68 W7        30.14S
GRINNELL*      CLEAR     49  42  79 W9        30.12S
KNOXVILLE *    CLEAR     46  43  87 W8        30.13S
MARSHALLTOWN   CLEAR     49  42  77 W9        30.09S
NEWTON *       CLEAR     46  43  87 W6        30.12S
PELLA *        CLEAR     52  44  75 W7        30.14S
PERRY *          N/A     46  43  88 W7        30.15S
$$

IAZ004>006-015-016-023>025-035-036-261200-
   NORTH CENTRAL IOWA

CITY           SKY/WX    TMP DP  RH WIND       PRES   REMARKS
ALGONA *       CLEAR     46  39  76 W12       30.10S
CLARION *      CLEAR     48  41  76 W9        30.09S
ESTHERVILLE    CLEAR     47  39  74 W10       30.09S
FORT DODGE *   CLEAR     46  37  71 W10       30.12R
MASON CITY     CLEAR     48  40  73 W14       30.07R
FOREST CITY *    N/A     46  37  71 W10       30.06S
WEBSTER CITY * CLEAR     46  41  81 W9        30.10R
IOWA FALLS *     N/A     48  41  76 W9        30.10S
$$

IAZ007>011-017>019-026>030-037>042-050>054-066-261200-
   NORTHEAST IOWA

CITY           SKY/WX    TMP DP  RH WIND       PRES   REMARKS
CEDAR RAPIDS   CLEAR     50  46  86 W12       30.07S
CHARLES CITY * CLEAR     48  43  81 W9G15     30.04S
CLINTON *      CLEAR     51  48  89 W6        30.05S
DECORAH *      CLEAR     48  43  81 VRB6      30.00R
DUBUQUE        CLEAR     49  45  86 W10       30.03R
MONTICELLO *   CLEAR     52  45  76 W9        30.04S
OELWEIN *      CLEAR     48  43  81 W8        30.05S
WATERLOO       CLEAR     50  42  74 W12       30.05R
$$

IAZ064-065-067-068-078-261200-
   EAST CENTRAL IOWA

CITY           SKY/WX    TMP DP  RH WIND       PRES   REMARKS
DAVENPORT      CLEAR     52  46  80 W7        30.07R
IOWA CITY      CLEAR     50  45  83 W7        30.10S
MT. PLEASANT * CLEAR     53  48  86 W7        30.13R
MUSCATINE *    CLEAR     52  46  82 W9        30.09S
QUAD CITIES    CLEAR     54  46  74 W8        30.07R
$$

IAZ062-063-075>077-085>089-095>099-261200-
   SOUTHEAST IOWA

CITY           SKY/WX    TMP DP  RH WIND       PRES   REMARKS
BURLINGTON     CLEAR     53  49  86 W5        30.11R
FAIRFIELD *    CLEAR     50  45  81 W8        30.12S
FORT MADISON * CLEAR     52  48  87 W6        30.13S
KEOKUK *       CLEAR     54  48  82 W7        30.13R
OSKALOOSA *      N/A     46  43  91 W7        30.13S
OTTUMWA        CLEAR     48  43  82 W8        30.13S
WASHINGTON *     N/A    N/A N/A N/A MISG        N/A
$$

ABBREVIATIONS USED IN REMARKS
   TC - TEMPERATURES IN CELSIUS
  WCI - WIND CHILL INDEX
   HX - HEAT INDEX
  VSB - VISIBILITY
$$





USA.gov is the U.S. government's official web portal to all federal, state and local government web resources and services.